Regional Weather Roundup
Issued by NWS New Orleans/Baton Rouge, LA

Home | Current Version | Previous Version | Text Only | Print | Product List | Glossary On
Versions: 1 2 3 4 5 6 7 8 9 10 11 12 13 14 15 16 17 18 19 20 21 22 23 24 25 26 27 28 29 30 31 32 33 34 35 36 37 38 39 40 41 42 43 44 45 46 47 48 49 50
000
ASUS44 KLIX 250612
RWRLIX
NEW ORLEANS REGIONAL WEATHER ROUNDUP
NATIONAL WEATHER SERVICE NEW ORLEANS LA
100 AM CDT MON MAY 25 2015

NOTE: "FAIR" INDICATES FEW OR NO CLOUDS BELOW 12,000 FEET WITH NO
      SIGNIFICANT WEATHER AND/OR OBSTRUCTIONS TO VISIBILITY.
      SKY/WX - SKY CONDITION AND SIGNIFICANT WEATHER.
      TMP - AIR TEMPERATURE.     DP    - DEWPOINT TEMPERATURE.
      RH  - RELATIVE HUMIDITY.   PRES  - PRESSURE.
      HI  - HEAT INDEX.          WCI   - WIND CHILL INDEX.

*  THESE STATIONS ARE NOT NWS OR FAA STATIONS AND ARE NOT UNDER
   NWS QUALITY CONTROL.

LAZ038-040-048-061>063-065>067-069-250700-
SOUTHEAST LOUISIANA

CITY           SKY/WX    TMP DP  RH WIND       PRES   REMARKS
N.O. AUDUBON     N/A     78  75  91 MISG        N/A
6HR MIN TEMP:  78; 6HR MAX TEMP:  84;

N.O. INTL ARPT TSTM      77  72  84 S5        30.02F
6HR MIN TEMP:  73; 6HR MAX TEMP:  83; 6HR PCP:  0.10;

N.O. LAKEFRONT CLOUDY    81  75  82 SE7       30.04F
6HR MIN TEMP:  77; 6HR MAX TEMP:  86; 6HR PCP:  0.05;

SLIDELL        CLOUDY    81  76  84 S13       30.04S
6HR MIN TEMP:  78; 6HR MAX TEMP:  83;

BATON ROUGE    CLOUDY    70  69  97 E7        30.01F
6HR MIN TEMP:  70; 6HR MAX TEMP:  82; 6HR PCP:  0.67;

BOOTHVILLE     CLOUDY    81  76  84 SE10      30.05F
6HR MIN TEMP:  80; 6HR MAX TEMP:  83; 6HR PCP: TRACE;

BELLE CHASSE   CLOUDY    79  74  84 SE10      30.01F THUNDER
6HR MIN TEMP:  75; 6HR MAX TEMP:  81; 6HR PCP:  0.06;

BOGALUSA*        N/A     76  71  83 S6        30.07S
6HR MIN TEMP:  76; 6HR MAX TEMP:  84; 6HR PCP:  0.16;

GALLIANO*      CLOUDY    82  71  71 S8        30.03F THUNDER
6HR MIN TEMP:  81; 6HR MAX TEMP:  83;

NEW ROADS*       N/A     70  70  98 E5        30.01F
6HR MIN TEMP:  70; 6HR MAX TEMP:  72; 6HR PCP:  0.28;

GONZALES*        N/A     72  72 100 CALM      30.01F
6HR MIN TEMP:  70; 6HR MAX TEMP:  83; 6HR PCP:  0.42;

HAMMOND*       CLOUDY    73  70  88 CALM      30.05S
HOUMA*         CLOUDY    75  74  95 SE5       30.01F THUNDER
6HR MIN TEMP:  74; 6HR MAX TEMP:  82; 6HR PCP:  0.34;

PORT FOURCHON* CLEAR     81  73  78 S10       30.04S

$$

MSZ070-080>082-250700-
SOUTHERN MISSISSIPPI

CITY           SKY/WX    TMP DP  RH WIND       PRES   REMARKS
MCCOMB         CLOUDY    70  69  97 CALM      30.05F
6HR MIN TEMP:  69; 6HR MAX TEMP:  76; 6HR PCP:  0.45;

GULFPORT       CLOUDY    79  71  76 SE16      30.06R
6HR MIN TEMP:  75; 6HR MAX TEMP:  81; 6HR PCP:  0.11;

BILOXI         CLOUDY    79  76  89 S18G24    30.06F
6HR MIN TEMP:  76; 6HR MAX TEMP:  80; 6HR PCP:  0.35;

PASCAGOULA     MOCLDY    79  74  84 SE13      30.08S
6HR MIN TEMP:  79; 6HR MAX TEMP:  80;


$$

COASTAL OBSERVATIONS
LAKE AND NEARSHORE STATIONS

STATION/POSITION TIME  TEMP    WIND        PRES    WAVE
                       AIR SEA DIR/SP/G            HT/PER
                 (UTC) (F)     (DEG/KT/KT) (MB)    (FT/S)
PASCAGOULA       0500   81     150/ 14/ 20 1018.1
WAVELAND YACHT   0500   82 81  170/ 20/ 25 1017.4
GRAND ISLE       0500   81 82  160/ 13/ 19 1017.1
SOUTHWEST PASS   0500   81 75  170/ 14/ 19 1018.3
NEW CANAL        0500   76 80  160/  3/  6 1016.5
SHELL BEACH      0500   81 83  150/ 13/ 19 1016.9

OFFSHORE STATIONS

STATION/POSITION TIME  TEMP    WIND        PRES    WAVE
                       AIR SEA DIR/SP/G            HT/PER
                 (UTC) (F)     (DEG/KT/KT) (MB)    (FT/S)
64 S DAUPHIN ISL 0550   80 78  140/ 16/ 17 1018.7    6/ 7

$$




USA.gov is the U.S. government's official web portal to all federal, state and local government web resources and services.